SCP
0 0 0 0 0 0 0 0 0 0 0 0 0 0 0 0 0 0 0 0 0 0 0 0 0 0 0 0 0 0 0 0 0 0 0 0 0 0 0 0 0 0 0
0 0 0 0 0 0 0 0 0 0 0 0 0 0 0 0 0 0 0 0 0 0 0 0 0 0 0 0 0 0 0 0 0 0 0 0 0 0 0 0 0 0 0
0 0 0 0 0 0 0 0 0 0 0 0 0 0 0 0 0 0 0 0 0 0 0 0 0 0 0 0 0 0 0 0 0 0 0 0 0 0 0 0 0 0 0
0 0 0 0 0 0 0 0 0 0 0 0 0 0 0 0 0 0 0 0 0 0 0 0 0 0 0 0 0 0 0 0 0 0 0 0 0 0 0 0 0 0 0
0 0 0 0 0 0 0 0 0 0 0 0 0 0 0 0 0 0 0 0 0 0 0 0 0 0 0 0 0 0 0 0 0 0 0 0 0 0 0 0 0 0 0
0 0 0 0 0 0 0 0 0 0 0 0 0 0 0 0 0 0 0 0 0 0 0 0 0 0 0 0 0 0 0 0 0 0 0 0 0 0 0 0 0 0 0
0 0 0 0 0 0 0 0 0 0 0 0 0 0 0 0 0 0 0 0 0 0 0 0 0 0 0 0 0 0 0 0 0 0 0 0 0 0 0 0 0 0 0
0 0 0 0 0 0 0 0 0 0 0 0 0 0 0 0 0 0 0 0 0 0 0 0 0 0 0 0 0 0 0 0 0 0 0 0 0 0 0 0 0 0 0
0 0 0 0 0 0 0 0 0 0 0 0 0 0 0 0 0 0 0 0 0 0 0 0 0 0 0 0 0 0 0 0 0 0 0 0 0 0 0 0 0 0 0
0 0 0 0 0 0 0 0 0 0 0 0 0 0 0 0 0 0 0 0 0 0 0 0 0 0 0 0 0 0 0 0 0 0 0 0 0 0 0 0 0 0 0
0 0 0 0 0 0 0 0 0 0 0 0 0 0 0 0 0 0 0 0 0 0 0 0 0 0 0 0 0 0 0 0 0 0 0 0 0 0 0 0 0 0 0
0 0 0 0 0 0 0 0 0 0 0 0 0 0 0 0 0 0 0 0 0 0 0 0 0 0 0 0 0 0 0 0 0 0 0 0 0 0 0 0 0 0 0
0 0 0 0 0 0 0 0 0 0 0 0 0 0 0 0 0 0 0 0 0 0 0 0 0 0 0 0 0 0 0 0 0 0 0 0 0 0 0 0 0 0 0
0 0 0 0 0 0 0 0 0 0 0 0 0 0 0 0 0 0 0 0 0 0 0 0 0 0 0 0 0 0 0 0 0 0 0 0 0 0 0 0 0 0 0
0 0 0 0 0 0 0 0 0 0 0 0 0 0 0 0 0 0 0 0 0 0 0 0 0 0 0 0 0 0 0 0 0 0 0 0 0 0 0 0 0 0 0
0 0 0 0 0 0 0 0 0 0 0 0 0 0 0 0 0 0 0 0 0 0 0 0 0 0 0 0 0 0 0 0 0 0 0 0 0 0 0 0 0 0 0
0 0 0 0 0 0 0 0 0 0 0 0 0 0 0 0 0 0 0 0 0 0 0 0 0 0 0 0 0 0 0 0 0 0 0 0 0 0 0 0 0 0 0
0 0 0 0 0 0 0 0 0 0 0 0 0 0 0 0 0 0 0 0 0 0 0 0 0 0 0 0 0 0 0 0 0 0 0 0 0 0 0 0 0 0 0
0 0 0 0 0 0 0 0 0 0 0 0 0 0 0 0 0 0 0 0 0 0 0 0 0 0 0 0 0 0 0 0 0 0 0 0 0 0 0 0 0 0 0
0 0 0 0 0 0 0 0 0 0 0 0 0 0 0 0 0 0 0 0 0 0 0 0 0 0 0 0 0 0 0 0 0 0 0 0 0 0 0 0 0 0 0
0 0 0 0 0 0 0 0 0 0 0 0 0 0 0 0 0 0 0 0 0 0 0 0 0 0 0 0 0 0 0 0 0 0 0 0 0 0 0 0 0 0 0
0 0 0 0 0 0 0 0 0 0 0 0 0 0 0 0 0 0 0 0 0 0 0 0 0 0 0 0 0 0 0 0 0 0 0 0 0 0 0 0 0 0 0
0 0 0 0 0 0 0 0 0 0 0 0 0 0 0 0 0 0 0 0 0 0 0 0 0 0 0 0 0 0 0 0 0 0 0 0 0 0 0 0 0 0 0
0 0 0 0 0 0 0 0 0 0 0 0 0 0 0 0 0 0 0 0 0 0 0 0 0 0 0 0 0 0 0 0 0 0 0 0 0 0 0 0 0 0 0
0 0 0 0 0 0 0 0 0 0 0 0 0 0 0 0 0 0 0 0 0 0 0 0 0 0 0 0 0 0 0 0 0 0 0 0 0 0 0 0 0 0 0
0 0 0 0 0 0 0 0 0 0 0 0 0 0 0 0 0 0 0 0 0 0 0 0 0 0 0 0 0 0 0 0 0 0 0 0 0 0 0 0 0 0 0
Wind_Speed
3 4 4 4 5 6 8 8 8 9 9 9 8 8 8 8 7 7 7 7 7 7 7 7 8 8 8 9 9 9 9 9 9 9 9 9 9 9 10 8 6 7 9
3 4 5 5 6 7 8 8 8 8 8 8 8 8 8 8 8 8 7 7 7 7 7 7 7 7 8 8 8 8 8 8 9 8 8 8 8 9 9 8 6 6 7
4 5 6 5 6 7 8 8 8 8 8 8 8 8 8 7 7 8 7 7 7 7 7 7 7 7 7 7 7 8 8 8 8 6 4 5 7 8 8 7 7 7 7
4 5 6 7 7 7 7 8 8 8 8 8 8 7 7 7 8 7 6 6 6 6 7 6 6 6 6 7 7 7 7 7 6 3 2 4 5 7 7 6 6 6 6
5 6 7 7 8 8 8 8 8 8 8 8 7 7 7 7 7 6 6 6 6 6 6 6 6 6 6 6 6 6 6 6 4 2 4 3 4 6 6 6 5 5 5
6 6 7 8 9 9 9 9 8 8 7 7 7 7 7 7 6 6 5 5 5 5 5 5 6 5 5 5 5 5 5 4 2 3 3 2 3 5 4 4 4 4 4
6 6 7 8 9 9 9 9 9 8 8 7 7 7 7 6 6 6 5 5 5 5 5 5 5 5 5 5 4 4 4 2 1 2 2 2 3 4 2 3 3 3 3
6 6 6 9 9 9 9 9 8 9 8 7 7 7 7 6 6 6 5 5 5 5 5 5 5 4 4 4 4 3 3 1 1 1 1 2 4 3 2 3 3 2 2
6 6 5 6 7 8 9 8 8 9 8 8 7 7 7 7 7 6 5 5 5 4 4 4 4 4 4 4 3 3 2 0 2 1 1 1 3 1 2 1 1 2 2
5 5 5 5 5 5 6 8 8 8 8 8 8 7 6 6 6 6 4 4 4 4 3 3 3 3 3 3 3 3 1 2 2 1 1 1 2 1 1 1 1 1 1
4 4 3 4 4 4 4 6 6 6 7 5 5 5 3 2 2 3 5 5 4 3 3 2 2 2 2 2 2 2 1 1 1 1 0 2 1 2 1 1 0 0 1
3 3 3 3 3 3 3 3 2 3 3 3 3 3 2 2 2 2 4 4 3 2 2 2 1 0 1 1 1 1 1 1 1 1 0 1 1 2 2 2 1 1 1
3 3 2 2 2 3 2 2 1 1 2 2 3 3 2 1 1 1 1 1 0 0 0 0 1 1 1 1 1 1 1 1 1 1 0 0 2 3 3 3 3 2 2
2 2 2 2 2 2 2 2 1 1 1 1 2 2 2 1 1 1 1 1 1 1 1 1 1 1 1 1 2 2 2 2 2 1 0 1 2 4 4 4 4 4 4
2 2 1 2 2 2 2 1 1 1 1 1 1 2 2 1 1 1 1 1 1 1 1 1 2 2 2 2 2 2 3 3 3 3 1 1 2 4 4 5 5 5 5
2 2 1 1 1 2 1 1 1 1 1 1 1 1 2 2 1 1 1 2 2 2 2 2 2 2 2 2 3 3 4 3 3 4 3 2 2 4 5 5 6 6 6
2 2 2 2 1 1 1 1 1 1 1 1 1 1 1 2 2 2 2 2 2 2 2 2 3 3 3 3 3 4 4 4 4 4 4 3 3 3 4 5 6 6 7
2 2 2 2 1 1 1 1 1 1 1 1 1 1 1 2 2 2 2 2 2 2 2 2 2 3 3 3 3 3 3 3 4 4 3 3 3 3 3 3 5 6 7
2 2 2 2 2 1 1 1 1 1 1 1 1 1 1 2 2 2 2 2 2 2 2 2 2 2 3 3 3 4 3 3 4 4 4 3 3 3 3 2 4 5 7
2 2 2 2 1 1 1 1 1 1 0 0 1 1 2 2 2 2 2 2 2 2 2 2 2 3 3 3 4 4 3 3 3 3 3 3 3 3 3 4 4 4 6
2 2 2 1 1 1 1 1 1 1 1 1 1 1 2 2 2 2 2 2 3 2 2 3 2 3 3 2 3 3 3 4 4 3 3 3 3 4 4 4 3 4 3
2 2 2 2 1 1 1 1 1 1 1 1 2 2 2 2 2 2 3 3 3 3 3 3 3 3 2 2 3 3 3 3 3 3 3 3 4 4 4 4 5 5 4
2 2 2 2 2 2 2 1 1 1 1 1 2 2 2 3 3 3 4 3 3 3 3 3 3 4 3 3 3 3 3 3 2 3 4 4 4 4 4 4 5 5 5
2 2 2 2 2 2 2 2 3 2 3 3 2 2 3 3 4 3 4 4 4 3 4 4 4 4 5 4 3 3 4 3 3 3 3 4 5 6 6 5 5 5 6
1 1 2 2 3 3 3 3 4 4 3 2 3 3 4 3 4 4 4 4 4 4 4 5 5 5 4 5 4 4 4 4 5 4 5 4 4 5 5 6 5 5 5
1 1 1 2 2 3 4 4 4 5 4 4 4 4 3 3 3 4 4 4 5 4 5 5 5 6 5 6 5 5 4 4 4 4 5 6 6 4 5 4 5 5 4
Wind_Direction
140 137 120 118 113 108 104 101 99 95 93 93 94 92 96 99 99 100 100 96 92 90 90 91 91 86 84 83 84 83 80 78 80 83 85 88 87 87 84 82 84 88 86
143 140 120 120 117 113 108 104 99 94 92 91 90 90 94 97 94 92 92 90 89 90 86 84 86 85 84 84 86 87 84 81 78 80 88 95 89 87 86 80 68 79 88
128 129 128 114 112 111 108 103 99 94 92 89 88 87 87 92 92 88 87 88 86 85 85 84 85 84 84 85 88 88 87 86 80 78 96 99 95 90 90 86 83 83 85
116 118 113 100 105 105 105 102 98 95 93 89 87 84 85 93 91 90 89 88 86 83 83 83 85 86 87 88 91 89 89 86 80 79 95 85 92 95 93 91 89 86 82
111 107 99 93 98 98 99 98 95 92 90 88 84 81 81 88 90 87 86 87 86 84 82 79 81 86 91 95 96 94 93 87 82 91 77 80 85 92 90 89 86 86 85
105 103 97 91 93 93 91 90 88 86 84 84 80 78 77 78 80 81 78 80 81 83 84 83 83 83 90 96 98 99 96 93 132 92 77 78 83 88 88 93 91 86 88
103 99 96 86 89 87 85 84 82 81 79 77 75 73 74 76 77 75 74 76 75 78 80 82 86 83 84 90 96 101 98 92 118 95 83 80 75 78 94 108 104 93 89
104 97 93 84 83 82 82 79 77 75 72 71 69 68 68 69 73 73 73 74 73 72 74 74 76 77 79 81 86 95 97 129 158 116 100 88 73 73 89 101 109 101 100
100 99 93 94 89 81 76 74 72 71 69 65 62 63 63 60 60 63 65 67 69 70 72 75 75 70 69 66 67 82 94 60 232 152 132 91 79 76 86 96 106 115 126
95 94 92 89 88 90 87 76 73 70 67 63 58 53 58 63 62 58 58 60 62 62 64 69 70 70 70 65 61 56 70 211 224 196 191 89 83 150 139 121 103 156 170
97 88 86 87 83 82 84 81 81 75 67 66 68 57 50 64 71 68 50 47 51 56 53 57 60 58 64 87 71 52 242 235 229 237 235 75 129 202 197 185 174 238 225
111 95 77 81 82 81 79 84 79 78 74 59 56 53 41 38 40 34 59 47 38 39 55 59 55 92 251 170 128 190 238 254 265 251 41 71 240 229 225 232 249 264 251
121 95 77 85 88 85 83 76 67 64 62 54 45 36 28 30 33 26 26 69 43 357 298 119 204 239 256 269 256 245 269 265 257 258 19 83 260 243 238 245 256 260 259
128 106 84 82 85 81 81 79 73 65 57 51 41 23 11 12 360 2 345 347 325 318 304 279 271 265 267 266 264 261 260 259 258 254 297 54 289 262 242 244 255 260 261
147 121 99 82 80 77 84 72 67 56 52 55 37 18 359 349 344 337 329 327 322 302 270 274 265 260 261 265 264 264 264 259 261 255 237 198 274 282 263 252 253 257 262
173 155 125 116 93 89 87 82 70 62 59 49 42 19 351 338 333 320 313 307 309 308 294 267 266 264 262 260 261 260 259 256 253 252 250 220 240 271 266 262 262 263 267
183 160 139 137 121 112 93 82 74 62 55 47 26 359 347 335 319 313 304 297 301 296 287 278 265 262 259 258 260 262 259 256 254 251 249 249 241 247 262 267 271 273 273
173 152 134 132 137 128 102 92 85 67 49 39 22 1 352 340 321 306 302 294 295 286 277 271 268 261 257 261 264 263 258 252 250 251 248 245 253 257 250 270 280 282 281
174 157 144 142 154 151 130 117 100 90 43 19 12 359 346 330 316 306 301 306 293 279 274 271 265 264 263 266 268 265 258 249 246 243 239 243 250 267 267 260 274 285 286
172 157 148 145 144 160 158 164 154 130 81 0 349 344 330 317 313 307 295 300 299 278 272 270 274 269 265 276 271 265 257 247 240 236 240 242 248 260 266 273 268 270 281
170 165 161 159 152 156 178 213 219 235 259 290 306 312 310 314 313 307 302 297 293 283 279 273 269 269 269 277 267 257 241 231 233 230 241 247 253 260 260 266 275 281 277
185 183 191 193 198 199 219 244 263 286 274 286 287 286 295 299 299 298 298 290 288 284 276 272 266 266 269 267 273 268 253 224 212 229 237 246 259 264 262 263 266 269 277
205 215 223 223 221 225 226 220 217 232 246 253 273 280 293 296 290 291 290 288 282 276 273 268 260 255 256 253 250 267 269 260 273 225 227 239 253 261 264 265 261 265 270
222 238 244 241 234 227 219 222 228 241 256 273 281 283 287 283 281 282 283 280 278 272 265 262 254 252 249 248 241 243 260 282 269 273 242 245 256 260 262 263 264 264 266
229 245 251 251 248 235 227 229 237 248 261 272 274 278 285 282 278 281 281 277 274 272 267 262 257 248 244 247 245 243 243 249 249 258 270 271 269 262 261 266 265 267 267
233 248 253 248 257 249 236 235 241 252 259 264 270 276 280 277 274 278 279 274 272 272 269 263 258 252 245 247 246 243 243 244 245 251 264 274 278 278 277 269 266 267 270